Orbital Elements
Epoch 2004 Nov. 11.0 TT = JDT 2453320.5
T 2004 Nov. 7.76696 TT MPCW
q 1.7095509 (2000.0) P Q
n 0.15235568 Peri. 336.52202 +0.87732764 -0.45592833
a 3.4718712 Node 51.46034 +0.46503560 +0.73067035
e 0.5075996 Incl. 11.03771 +0.11848246 +0.50818324
P 6.47
From 424 observations 2004 July 16-2017 June 22, mean residual 0".6.
|